Cape Byron Observation History
Time Wind Speed Temp Pressure Rel. Hum Rain
20/09:30am E 18-23 kts 23.9°c 1024.1 hPa 79% 0.0mm
20/09:00am ESE 17-24 kts 22.6°c 1023.9 hPa 87% 17.8mm
20/08:30am E 17-21 kts 22.1°c 1024.0 hPa 87% 17.8mm
20/08:00am ESE 20-25 kts 21.7°c 1024.0 hPa 84% 17.8mm
20/07:30am E 23-28 kts 21.3°c 1023.5 hPa 90% 17.8mm
20/07:11am ESE 21-32 kts 21.5°c 1023.2 hPa 90% 17.2mm
20/07:00am ESE 25-32 kts 20.7°c 1023.2 hPa 89% 17.2mm
20/06:57am ESE 25-32 kts 20.5°c 1023.1 hPa 90% 17.2mm
20/06:37am E 21-31 kts 21.6°c 1023.0 hPa 87% 16.8mm
20/06:30am E 22-31 kts 22.0°c 1022.5 hPa 85% 16.8mm
20/06:00am ESE 18-23 kts 20.7°c 1022.8 hPa 86% 16.6mm
20/05:30am E 16-27 kts 21.8°c 1022.3 hPa 86% 16.6mm
20/05:11am E 15-25 kts 21.6°c 1022.3 hPa 85% 16.6mm
20/05:00am E 18-23 kts 22.2°c 1022.1 hPa 82% 16.4mm
20/04:30am E 19-24 kts 22.2°c 1022.1 hPa 81% 16.4mm
20/04:00am E 19-24 kts 21.9°c 1022.1 hPa 82% 16.4mm
20/03:30am E 13-19 kts 21.8°c 1022.3 hPa 79% 16.4mm
20/03:09am E 17-29 kts 22.1°c 1022.0 hPa 81% 16.4mm
20/03:00am E 16-22 kts 22.1°c 1022.2 hPa 82% 16.4mm
20/02:30am E 14-20 kts 21.9°c 1022.3 hPa 82% 16.4mm
20/02:00am E 12-19 kts 21.8°c 1022.6 hPa 82% 16.4mm
20/01:30am E 14-21 kts 22.3°c 1022.8 hPa 77% 16.0mm
20/01:00am E 17-23 kts 22.0°c 1023.0 hPa 78% 16.0mm
20/12:30am ENE 12-18 kts 22.2°c 1023.2 hPa 81% 16.0mm
20/12:00am E 14-21 kts 22.2°c 1023.2 hPa 83% 16.0mm
Time Wind Speed Temp Pressure Rel. Hum Rain
19/11:30pm E 15-22 kts 22.2°c 1023.5 hPa 82% 16.0mm
19/11:00pm E 17-27 kts 21.7°c 1023.5 hPa 83% 16.0mm
19/10:58pm E 17-27 kts 21.6°c 1023.5 hPa 85% 16.0mm
19/10:30pm E 17-24 kts 21.3°c 1023.6 hPa 90% 16.0mm
19/10:02pm E 16-27 kts 22.2°c 1023.7 hPa 85% 15.2mm
19/10:00pm E 16-23 kts 22.2°c 1023.8 hPa 84% 15.2mm
19/09:30pm E 18-22 kts 21.9°c 1023.8 hPa 86% 15.2mm
19/09:00pm E 15-25 kts 21.6°c 1023.8 hPa 87% 15.2mm
19/08:30pm E 19-24 kts 21.6°c 1023.8 hPa 88% 15.2mm
19/08:00pm E 12-18 kts 20.9°c 1023.7 hPa 88% 15.2mm
19/07:30pm E 23-34 kts 21.1°c 1023.5 hPa 90% 15.0mm
19/07:21pm E 21-32 kts 21.5°c 1023.0 hPa 89% 15.0mm
19/07:00pm E 17-22 kts 21.7°c 1023.2 hPa 89% 14.8mm
19/06:30pm E 21-26 kts 21.3°c 1023.0 hPa 90% 14.8mm
19/06:00pm E 20-26 kts 21.0°c 1022.9 hPa 91% 14.8mm
19/05:45pm E 16-26 kts 21.5°c 1022.8 hPa 86% 13.4mm
19/05:30pm E 21-24 kts 22.2°c 1022.5 hPa 89% 13.4mm
19/05:00pm E 18-25 kts 22.1°c 1022.3 hPa 88% 13.4mm
19/04:30pm E 19-23 kts 21.8°c 1022.3 hPa 90% 13.4mm
19/04:00pm E 24-30 kts 21.3°c 1022.2 hPa 92% 13.4mm
19/03:38pm E 15-25 kts 22.0°c 1022.1 hPa 89% 13.2mm
19/03:30pm E 20-25 kts 21.9°c 1021.8 hPa 92% 13.2mm
19/03:02pm E 23-33 kts 21.0°c 1022.2 hPa 91% 13.2mm
19/03:00pm E 22-33 kts 21.1°c 1022.1 hPa 90% 13.2mm
19/02:53pm E 17-28 kts 22.0°c 1021.9 hPa 90% 12.4mm
19/02:30pm E 11-15 kts 21.6°c 1022.4 hPa 92% 12.4mm
19/02:04pm ESE 17-28 kts 23.0°c 1022.2 hPa 82% 6.2mm
19/02:00pm ESE 17-21 kts 23.1°c 1022.4 hPa 82% 6.2mm
19/01:30pm E 21-25 kts 22.8°c 1022.2 hPa 80% 6.2mm
19/01:00pm E 21-25 kts 24.0°c 1022.4 hPa 76% 6.2mm
19/12:30pm E 19-23 kts 23.8°c 1022.8 hPa 80% 6.0mm
19/12:00pm ESE 19-26 kts 22.5°c 1023.2 hPa 84% 6.0mm
19/11:56am ESE 16-26 kts 22.7°c 1023.2 hPa 82% 6.0mm
19/11:30am ESE 15-19 kts 22.2°c 1024.1 hPa 90% 6.0mm
19/11:28am ESE 16-22 kts 21.8°c 1024.2 hPa 89% 6.0mm
19/11:10am ESE 20-39 kts 22.6°c 1023.7 hPa 76% 0.0mm
19/11:08am SE 18-34 kts 23.7°c 1024.2 hPa 76% 0.0mm
19/11:00am SE 17-21 kts 24.2°c 1024.2 hPa 75% 0.0mm
19/10:30am SE 16-21 kts 23.4°c 1024.6 hPa 77% 0.0mm
19/10:00am SE 13-18 kts 23.7°c 1024.9 hPa 79% 0.0mm
19/09:30am ESE 17-23 kts 22.6°c 1024.9 hPa 81% 0.0mm
19/09:00am ESE 18-21 kts 23.3°c 1025.0 hPa 77% 8.6mm
19/08:30am ESE 19-24 kts 22.8°c 1024.9 hPa 78% 8.6mm
19/08:00am SE 16-22 kts 22.3°c 1024.7 hPa 80% 8.6mm
19/07:30am SSE 11-18 kts 22.3°c 1024.4 hPa 87% 8.6mm
19/07:00am SSE 15-21 kts 21.2°c 1024.3 hPa 84% 8.6mm
19/06:58am SSE 15-21 kts 21.4°c 1024.3 hPa 85% 8.6mm
19/06:30am ESE 10-20 kts 20.7°c 1023.9 hPa 93% 8.4mm
19/06:00am SE 16-24 kts 20.2°c 1023.4 hPa 90% 5.6mm
19/05:30am SE 19-24 kts 21.4°c 1023.2 hPa 83% 1.8mm
19/05:04am SE 17-29 kts 22.4°c 1022.7 hPa 79% 1.8mm
19/05:00am SE 17-23 kts 22.3°c 1022.9 hPa 75% 1.8mm
19/04:30am SE 17-23 kts 22.4°c 1022.6 hPa 79% 1.8mm
19/04:00am SE 19-23 kts 22.2°c 1022.4 hPa 78% 1.6mm
19/03:30am SE 19-23 kts 21.9°c 1022.5 hPa 80% 1.6mm
19/03:18am SE 16-26 kts 22.3°c 1022.3 hPa 83% 1.6mm
19/03:00am SE 15-21 kts 22.4°c 1022.5 hPa 78% 1.6mm
19/02:30am SE 18-22 kts 22.1°c 1022.8 hPa 76% 1.4mm
19/02:00am SE 18-23 kts 22.2°c 1023.1 hPa 78% 1.4mm
19/01:30am ESE 17-22 kts 21.6°c 1023.4 hPa 83% 1.4mm
19/01:00am ESE 20-31 kts 22.5°c 1023.4 hPa 77% 0.8mm
19/12:30am ESE 19-25 kts 22.5°c 1023.7 hPa 76% 0.8mm
19/12:00am SE 17-22 kts 22.3°c 1023.8 hPa 77% 0.8mm
Time Wind Speed Temp Pressure Rel. Hum Rain
18/11:30pm SE 20-23 kts 22.4°c 1023.9 hPa 74% 0.8mm
18/11:00pm SE 17-21 kts 22.4°c 1024.2 hPa 75% 0.8mm
18/10:30pm SE 16-21 kts 22.5°c 1024.2 hPa 75% 0.8mm
18/10:00pm SE 20-25 kts 22.3°c 1024.1 hPa 75% 0.8mm
18/09:30pm SE 17-21 kts 22.6°c 1024.4 hPa 75% 0.8mm
18/09:00pm SE 17-22 kts 22.4°c 1024.2 hPa 75% 0.8mm
18/08:30pm SSE 15-19 kts 22.4°c 1023.9 hPa 73% 0.8mm
18/08:00pm SE 14-20 kts 22.4°c 1023.9 hPa 76% 0.8mm
18/07:30pm SE 15-19 kts 22.1°c 1023.5 hPa 76% 0.8mm
18/07:00pm ESE 17-23 kts 21.3°c 1023.3 hPa 85% 0.6mm
18/06:30pm SE 13-16 kts 22.3°c 1023.1 hPa 77% 0.0mm
18/06:00pm SSE 13-19 kts 22.6°c 1022.7 hPa 74% 0.0mm
18/05:30pm SSE 14-18 kts 22.6°c 1022.4 hPa 70% 0.0mm
18/05:00pm SSE 13-17 kts 22.8°c 1022.1 hPa 72% 0.0mm
18/04:30pm SE 14-18 kts 23.0°c 1021.9 hPa 72% 0.0mm
18/04:00pm SSE 15-22 kts 23.3°c 1021.7 hPa 69% 0.0mm
18/03:30pm SSE 15-20 kts 23.0°c 1021.8 hPa 66% 0.0mm
18/03:00pm SSE 13-19 kts 23.1°c 1021.8 hPa 71% 0.0mm
18/02:30pm SSW 15-17 kts 22.7°c 1021.9 hPa 78% 0.0mm
18/02:00pm S 18-23 kts 22.6°c 1021.9 hPa 79% 0.0mm
18/01:30pm SSW 16-18 kts 23.4°c 1022.0 hPa 73% 0.0mm
18/01:00pm SSW 14-18 kts 22.8°c 1022.2 hPa 75% 0.0mm
18/12:30pm SSW 19-23 kts 22.1°c 1022.4 hPa 78% 0.0mm
18/12:00pm S 17-21 kts 22.3°c 1022.8 hPa 73% 0.0mm
18/11:30am S 15-18 kts 23.0°c 1023.2 hPa 75% 0.0mm
18/11:00am SSW 13-18 kts 22.7°c 1023.5 hPa 75% 0.0mm
18/10:30am SSW 13-18 kts 22.5°c 1023.7 hPa 75% 0.0mm
18/10:00am SW 11-17 kts 21.7°c 1023.9 hPa 80% 0.0mm
18/09:30am SW 8-13 kts 21.0°c 1023.9 hPa 83% 0.0mm
18/09:00am SW 11-14 kts 19.4°c 1023.9 hPa 86% 0.8mm
18/08:30am SW 11-13 kts 18.9°c 1023.8 hPa 87% 0.8mm
18/08:00am SW 12-16 kts 18.3°c 1023.5 hPa 90% 0.8mm
18/07:30am SW 15-19 kts 17.7°c 1023.1 hPa 93% 0.8mm
18/07:00am SW 14-18 kts 17.4°c 1022.9 hPa 94% 0.8mm
18/06:30am SW 14-17 kts 17.2°c 1022.4 hPa 94% 0.8mm
18/06:00am WSW 12-16 kts 17.3°c 1022.1 hPa 95% 0.8mm
18/05:30am SW 11-14 kts 17.5°c 1021.9 hPa 95% 0.8mm
18/05:00am SW 13-16 kts 17.2°c 1021.7 hPa 95% 0.8mm
18/04:30am SW 15-18 kts 17.3°c 1021.5 hPa 95% 0.8mm
18/04:00am SW 13-17 kts 17.4°c 1021.5 hPa 94% 0.8mm
18/03:30am SW 14-17 kts 17.4°c 1021.5 hPa 95% 0.8mm
18/03:00am SW 13-15 kts 17.4°c 1021.6 hPa 94% 0.8mm
18/02:30am WSW 13-16 kts 17.6°c 1021.8 hPa 94% 0.8mm
18/02:00am WSW 13-17 kts 17.8°c 1021.9 hPa 94% 0.8mm
18/01:30am WSW 14-17 kts 17.8°c 1022.1 hPa 93% 0.8mm
18/01:00am SW 11-14 kts 18.0°c 1022.3 hPa 92% 0.8mm
18/12:30am WSW 12-16 kts 18.1°c 1022.6 hPa 92% 0.8mm
18/12:00am WSW 13-17 kts 18.3°c 1022.6 hPa 92% 0.8mm